EO-88
1 42017U 17008BX 17116.91993410 .00003577 00000-0 15611-3 0 9991
2 42017 097.4997 178.4680 0007807 051.9786 308.2154 15.22771814010689
/EX
1
0
SB KEPS @ AMSAT $ORB17110.N
2Line Orbital Elements 17110.AMSAT
HR AMSAT ORBITAL ELEMENTS FOR AMATEUR SATELLITES IN NASA FORMAT
FROM WA5QGD FORT WORTH,TX April 20, 2017
BID: ORB17110.N
DECODE 2-LINE ELSETS WITH THE FOLLOWING KEY:
1 AAAAAU 00 0 0 BBBBB.BBBBBBBB .CCCCCCCC 00000-0 00000-0 0 DDDZ
2 AAAAA EEE.EEEE FFF.FFFF GGGGGGG HHH.HHHH III.IIII JJ.JJJJJJJJKKKKKZ
KEY: A-CATALOGNUM B-EPOCHTIME C-DECAY D-ELSETNUM E-INCLINATION F-RAAN
G-ECCENTRICITY H-ARGPERIGEE I-MNANOM J-MNMOTION K-ORBITNUM Z-CHECKSUM
TO ALL RADIO AMATEURS BT
AO-07
1 07530U 74089B 17109.90036458 -.00000018 00000-0 16671-3 0 9990
2 07530 101.6248 079.7471 0012495 075.5465 342.0680 12.53626538941555
UO-11
1 14781U 84021B 17109.93484592 .00000116 00000-0 20562-4 0 9995
2 14781 097.7042 157.7743 0009351 039.2222 320.9668 14.82881412760718
LO-19
1 20442U 90005G 17109.76577418 .00000029 00000-0 26607-4 0 9995
2 20442 098.5721 046.8848 0011120 325.5305 034.5157 14.32855962423191
HUBBLE
1 20580U 90037B 17109.21943700 .00000653 00000-0 29360-4 0 9996
2 20580 028.4706 037.1570 0002548 256.8635 234.2116 15.08734755281286
MET-2/21
1 22782U 93055A 17109.95960512 .00000068 00000-0 48063-4 0 9997
2 22782 082.5490 069.7913 0021251 232.4252 186.2396 13.83798694193373
AO-27
1 22825U 93061C 17109.83773385 .00000016 00000-0 23733-4 0 9999
2 22825 098.8063 074.7213 0009111 136.3444 223.8460 14.29992652228798
IO-26
1 22826U 93061D 17109.88218082 .00000024 00000-0 26752-4 0 9996
2 22826 098.8006 074.8551 0009767 127.7357 232.4711 14.30320969229240
FO-29
1 24278U 96046B 17109.67427420 -.00000054 00000-0 -21026-4 0 9994
2 24278 098.5724 000.6979 0351163 128.8976 234.4039 13.53075649020719
NOAA-15
1 25338U 98030A 17109.89868158 .00000048 00000-0 39071-4 0 9998
2 25338 098.7842 120.6877 0010911 022.2289 337.9361 14.25786917984439
GO-32
1 25397U 98043D 17109.85980258 .00000003 00000-0 20295-4 0 9998
2 25397 098.6053 053.4412 0001815 131.2918 228.8417 14.23619727975272
ISS
1 25544U 98067A 17109.92096824 .00002787 00000-0 49344-4 0 9990
2 25544 051.6434 328.7262 0007243 075.4107 032.5712 15.54131334052697
NO-44
1 26931U 01043C 17109.79573266 .00000006 00000-0 34279-4 0 9997
2 26931 067.0512 241.8515 0007815 274.1151 085.9057 14.30455883811928
SO-50
1 27607U 02058C 17109.91105513 .00000099 00000-0 34958-4 0 9991
2 27607 064.5550 303.6410 0032457 125.5172 234.8965 14.75309545770385
CO-55
1 27844U 03031E 17109.95665934 .00000079 00000-0 55336-4 0 9999
2 27844 098.6912 119.8073 0010347 149.9849 210.1924 14.22029238716006
CO-57
1 27848U 03031J 17109.79990545 .00000064 00000-0 49213-4 0 9995
2 27848 098.7006 119.8866 0010080 159.0553 201.1039 14.21644813715875
RS-22
1 27939U 03042A 17109.91961075 .00000214 00000-0 46984-4 0 9997
2 27939 097.9299 256.5687 0014089 055.2932 059.8605 14.66548526724636
NOAA-18
1 28654U 05018A 17109.89178624 .00000017 00000-0 34823-4 0 9994
2 28654 099.1869 130.6692 0013523 232.4799 127.5143 14.12333136613938
CO-58
1 28895U 05043F 17109.71231189 .00000232 00000-0 53473-4 0 9997
2 28895 097.8583 274.7214 0016066 333.0515 026.9852 14.63373902611705
Falconsat-3
1 30776U 07006E 17109.32144478 .00003421 00000-0 11003-3 0 9995
2 30776 035.4356 079.9736 0003046 171.8168 188.2608 15.31891596559221
CO-65
1 32785U 08021C 17109.53196090 .00000388 00000-0 48069-4 0 9997
2 32785 097.5717 136.4685 0013281 010.0136 350.1344 14.87846794486109
AAUSAT2
1 32788U 08021F 17109.62321726 .00000511 00000-0 53333-4 0 9994
2 32788 097.5651 147.7981 0011082 333.6060 026.4595 14.93786092486832
DO-64
1 32789U 08021G 17109.90659869 .00002427 00000-0 17676-3 0 9995
2 32789 097.5650 169.3556 0011440 302.5670 057.4451 15.04655759488004
CO-66
1 32791U 08021J 17109.02039552 .00000543 00000-0 61479-4 0 9990
2 32791 097.5691 140.1600 0013224 357.1774 002.9368 14.90161441486253
RS-30
1 32953U 08025A 17109.93187330 .00000054 00000-0 31569-3 0 9995
2 32953 082.4996 275.8784 0019472 054.8793 305.4109 12.43075921404185
PRISM
1 33493U 09002B 17109.82456435 .00001320 00000-0 12454-3 0 9993
2 33493 098.1765 349.7727 0013890 276.9720 082.9931 14.95578442447054
NOAA-19
1 33591U 09005A 17109.88721390 .00000124 00000-0 92444-4 0 9995
2 33591 099.0869 075.9031 0015049 077.0104 283.2747 14.12171930422164
TISAT-1
1 36799U 10035E 17109.86746914 .00000729 00000-0 81027-4 0 9996
2 36799 098.0533 231.4445 0013230 153.3765 206.8134 14.90319921367094
JUGNU
1 37839U 11058B 17109.31722017 .00000307 00000-0 22022-4 0 9998
2 37839 019.9611 087.4293 0018739 254.2373 248.8097 14.12579018285254
SRMSAT
1 37841U 11058D 17109.36157722 .00000304 00000-0 21657-4 0 9991
2 37841 019.9709 127.6345 0011896 154.0309 322.8292 14.10571072284870
AO-71
1 37854U 11061E 17109.77418645 .00002373 00000-0 13470-3 0 9999
2 37854 101.7109 313.6770 0168195 247.8356 110.4932 15.03842115298155
HRBE
1 37855U 11061F 17109.81019908 .00001542 00000-0 89084-4 0 9996
2 37855 101.7242 311.5732 0181224 253.8571 104.2625 15.02799418297552
ALMASAT-1
1 38078U 12006B 17109.95091413 .00025050 36983-5 29329-3 0 9999
2 38078 069.4383 288.8017 0317721 016.0927 345.0048 15.19714656275936
HORYU-2
1 38340U 12025D 17109.89568732 .00000344 00000-0 58817-4 0 9998
2 38340 098.3765 111.7656 0012901 114.6579 245.5974 14.75299279254283
RS-40
1 38735U 12041C 17109.83507205 .00000005 00000-0 -32777-4 0 9998
2 38735 082.4796 000.5762 0016903 152.1895 208.0091 12.42573678214455
BEESAT-3
1 39134U 13015E 17109.90126985 .00002682 00000-0 14097-3 0 9990
2 39134 064.8691 054.5612 0033307 284.1252 075.6173 15.17573614220259
BEESAT-2
1 39136U 13015G 17109.95454612 .00002031 00000-0 11782-3 0 9994
2 39136 064.8716 064.2782 0030381 290.9818 068.8057 15.14902962220060
ZACUBE-1
1 39417U 13066B 17109.70584105 .00000363 00000-0 52241-4 0 9998
2 39417 097.6362 154.7643 0060973 101.1323 259.6753 14.80667800184128
TRITON-1
1 39427U 13066M 17109.95844633 .00000275 00000-0 51959-4 0 9998
2 39427 097.6415 129.2094 0114632 174.5297 185.7192 14.67422033182318
GOMX-1
1 39430U 13066Q 17109.59733933 .00000256 00000-0 55842-4 0 9996
2 39430 097.6649 113.1039 0150844 227.6994 131.1342 14.58833196181385
LO-74
1 39440U 13066AA 17109.65010839 .00000344 00000-0 54994-4 0 9992
2 39440 097.6348 144.3521 0082131 129.6748 231.1744 14.75409400182266
AO-73
1 39444U 13066AE 17109.71423555 .00000470 00000-0 64697-4 0 9997
2 39444 097.6376 155.7514 0060167 098.1711 262.6333 14.81390217182360
SPROUT
1 39770U 14029E 17109.85792317 .00001047 00000-0 12561-3 0 9992
2 39770 097.8691 209.8146 0009986 150.8147 209.3628 14.86116565157473
DUCHIFAT-1
1 40021U 14033M 17109.86772383 .00000568 00000-0 65009-4 0 9993
2 40021 097.9211 022.9431 0014164 128.8253 231.4231 14.89812524153913
NANOSATCBR1
1 40024U 14033Q 17109.70919681 .00000595 00000-0 68946-4 0 9996
2 40024 097.9173 021.7626 0013384 130.0948 230.1444 14.89148423153849
EO-79
1 40025U 14033R 17109.79213315 .00000430 00000-0 52453-4 0 9991
2 40025 097.9157 020.9722 0013586 132.4376 227.7992 14.88365226153802
DTUSAT-2
1 40030U 14033W 17109.71536280 .00000434 00000-0 53296-4 0 9998
2 40030 097.9124 020.0682 0013112 127.2937 232.9477 14.87989691153249
EO-80
1 40032U 14033Y 17109.88951414 .00000428 00000-0 52768-4 0 9994
2 40032 097.9132 020.2488 0013079 127.0998 233.1416 14.87924492153258
